Theta_e
288 284 279 282 282 284 283 282 279 281 283 280 277 277 280 282 281 281 282 284 285 285 287 287 287 287 286 286 287 287 287 289 289 289 290 290 290 292 293 295 296 297 298 298
284 280 284 285 285 281 280 279 276 279 282 280 277 276 278 280 279 279 280 280 282 282 283 284 284 284 284 284 284 285 286 286 286 287 288 289 288 290 290 292 292 294 294 295
281 281 285 282 280 282 279 277 275 277 280 279 276 277 277 279 280 280 280 279 279 280 280 281 282 281 282 282 282 284 284 285 285 285 286 285 285 285 285 286 287 289 290 292
280 283 281 281 280 281 279 280 280 279 274 270 276 270 275 277 277 278 278 276 276 277 280 281 281 281 281 281 282 283 283 284 285 284 283 282 281 280 283 284 285 285 288 289
280 280 279 279 280 281 279 281 280 278 273 272 272 268 273 276 275 276 277 277 276 276 277 279 280 281 281 281 280 281 282 283 284 283 283 282 281 282 283 283 283 284 285 286
281 283 281 280 281 282 282 279 278 276 271 266 265 268 274 274 275 276 277 277 277 276 277 278 280 281 280 280 280 281 281 281 282 282 282 281 280 281 281 281 281 282 283 284
279 280 281 281 278 281 279 275 268 270 267 271 260 267 276 276 275 277 277 276 276 276 276 277 277 278 278 279 279 281 281 280 281 281 281 281 280 280 280 280 280 280 281 281
271 274 277 281 279 277 277 273 269 263 266 269 261 268 275 275 276 277 278 278 278 277 277 276 277 277 278 278 279 279 280 279 280 279 280 280 280 280 280 280 280 280 280 281
271 275 280 280 280 278 276 270 275 263 255 262 269 274 277 276 275 275 276 276 276 276 277 277 277 277 277 278 278 279 279 279 279 279 279 279 280 279 279 279 280 280 280 281
276 271 275 280 280 278 277 278 270 267 263 262 266 263 273 271 272 273 275 275 276 277 277 277 277 277 277 278 278 278 279 278 279 278 279 279 279 279 279 279 278 279 279 280
276 271 274 277 270 271 272 270 271 271 271 266 262 269 272 271 271 272 272 275 270 271 275 277 278 278 277 277 277 277 278 278 278 278 279 278 279 279 279 278 278 278 279 279
279 276 268 273 276 278 278 276 275 270 267 267 267 270 272 267 263 265 270 273 272 270 273 273 276 276 276 275 275 276 277 277 277 277 278 278 278 278 277 277 277 277 277 278
279 269 265 273 273 275 273 276 276 271 273 267 265 271 267 264 264 266 266 268 270 269 269 271 274 274 274 275 275 275 275 275 277 277 277 277 277 277 276 276 277 277 276 276
283 276 271 271 273 271 271 273 275 272 264 268 272 276 278 272 270 268 267 266 265 266 266 267 268 270 273 273 272 272 274 275 275 276 276 276 276 276 276 276 276 275 275 275
279 267 271 272 271 268 272 272 271 270 271 269 275 269 277 269 269 267 264 261 262 265 265 266 264 268 268 268 269 269 271 273 275 274 273 274 275 276 275 275 275 274 274 274
278 267 266 267 273 273 271 274 272 273 274 266 272 272 273 260 257 262 264 261 263 264 265 266 265 265 266 267 270 271 271 272 272 271 271 273 273 273 273 274 273 273 273 273
272 265 262 265 266 266 268 271 272 269 266 269 268 273 259 264 262 261 264 261 262 263 265 265 265 265 266 268 270 269 271 271 270 270 271 271 271 271 271 272 272 271 271 272
266 265 261 263 262 261 275 273 272 271 273 270 270 268 265 265 264 265 262 263 264 265 265 267 266 265 266 267 267 270 270 269 269 269 270 270 269 271 270 270 270 269 270 270
277 270 265 261 255 270 275 271 272 272 273 276 273 269 268 268 269 271 272 269 267 267 270 267 267 267 268 270 269 270 271 271 271 271 271 272 273 271 270 269 268 269 269 269
273 271 266 258 259 264 273 272 274 274 270 273 273 272 271 270 266 269 271 273 273 273 274 273 274 274 273 273 273 272 270 269 269 271 270 271 272 270 268 268 268 269 269 270
270 272 269 267 262 268 274 274 275 269 274 272 272 272 271 269 270 271 273 272 273 273 273 274 273 272 272 273 272 270 270 268 270 271 270 268 268 267 267 267 268 268 268 269
269 266 264 261 260 266 274 273 274 275 273 273 272 271 270 270 271 271 271 272 272 271 272 273 271 271 271 271 270 269 268 269 270 267 266 265 265 266 267 266 267 268 268 267
270 274 271 272 272 275 276 275 274 274 273 272 272 272 271 270 270 270 270 270 271 271 271 271 270 269 269 269 269 267 267 268 265 263 262 263 264 265 267 266 266 265 267 266
274 274 272 272 275 275 276 275 275 274 273 274 273 272 271 269 270 269 269 270 269 270 269 268 266 266 266 267 267 265 267 265 262 261 261 262 263 263 265 265 264 264 265 266
276 274 271 271 274 271 273 274 274 274 274 273 272 271 271 270 270 269 269 269 269 268 267 266 265 264 264 264 264 264 263 262 261 261 261 261 262 263 261 262 263 265 266 268
275 276 274 276 277 276 274 274 275 272 271 272 270 269 269 269 268 268 267 268 267 266 265 264 264 263 263 262 262 262 262 261 260 259 260 260 261 260 260 260 261 265 268 269
Wind_Speed
7 13 6 7 4 4 2 1 4 3 5 5 3 2 4 7 7 8 7 6 7 8 5 7 9 9 10 12 12 13 13 13 10 9 9 8 9 7 8 6 10 10 9 11
9 8 7 2 6 8 8 3 5 6 5 5 2 2 1 3 2 2 4 6 6 5 7 8 7 9 9 9 10 11 11 11 10 8 7 4 7 4 7 7 10 10 12 13
9 3 4 4 6 5 2 3 2 6 8 1 4 6 5 2 4 4 6 4 4 5 5 6 7 7 7 9 9 9 10 9 8 10 8 8 5 5 6 11 10 13 15 14
7 5 3 4 5 2 1 2 2 4 4 2 4 7 6 5 5 3 3 2 2 3 4 4 6 7 7 7 6 7 9 9 10 10 10 11 8 9 9 10 11 13 14 14
1 5 6 7 3 2 2 1 3 2 3 4 4 4 6 6 7 8 7 4 1 2 3 5 6 6 5 6 7 7 8 9 10 10 9 8 10 8 9 9 14 14 13 16
3 2 3 2 3 3 3 1 4 3 3 4 5 5 6 7 7 5 4 4 2 1 3 4 5 5 6 6 6 7 9 10 10 10 11 11 12 13 12 12 11 10 11 11
6 2 2 3 3 1 6 7 6 9 7 6 1 1 12 2 1 6 9 8 6 3 2 4 6 7 7 8 8 7 8 11 10 10 10 11 12 12 13 13 11 15 11 11
4 8 4 6 4 1 5 5 7 5 4 7 2 8 7 0 2 4 5 7 6 5 3 3 5 6 6 7 7 7 9 11 10 10 11 10 11 8 10 11 12 11 12 12
3 6 1 1 1 2 1 4 2 7 2 4 4 9 3 2 2 3 6 6 8 7 6 6 6 6 6 7 8 8 9 10 11 11 10 10 10 12 12 14 13 11 14 13
2 5 1 2 1 3 3 3 4 4 3 7 7 7 9 6 10 8 8 9 8 6 7 7 6 6 5 7 7 8 9 11 12 11 10 10 12 12 12 12 14 14 15 16
4 5 5 3 3 6 2 2 4 3 4 5 6 9 7 7 8 13 10 6 7 7 8 7 7 6 7 7 7 9 10 11 11 11 12 12 12 12 13 12 13 14 16 16
0 4 4 10 4 3 4 6 7 6 7 4 2 13 2 6 5 5 7 6 5 6 7 7 7 7 7 8 7 10 11 12 12 11 12 13 12 13 12 12 14 15 16 17
5 3 5 12 4 3 5 5 4 3 3 9 4 11 0 3 5 6 7 7 6 6 8 7 7 7 7 9 10 11 12 13 13 12 12 12 13 13 14 14 15 16 16 17
1 3 9 10 10 3 3 5 6 6 4 4 14 19 16 8 9 7 8 8 7 7 8 6 7 7 9 10 11 11 12 12 12 11 12 13 13 13 13 14 15 16 16 17
4 6 2 6 9 4 10 13 8 11 11 9 20 8 21 4 7 6 4 5 6 8 7 7 6 8 8 10 10 9 10 11 12 12 12 13 12 13 14 14 15 16 16 15
1 5 2 7 5 5 9 19 11 19 15 10 20 24 14 2 2 3 6 4 7 7 8 9 8 10 9 9 11 11 11 12 10 11 13 12 11 12 12 14 15 16 16 16
4 4 4 8 6 8 9 13 14 6 5 8 8 12 2 2 3 5 7 4 6 6 8 9 10 9 9 11 11 12 14 12 12 12 13 13 12 12 11 12 14 15 16 17
6 5 3 6 6 1 10 3 2 7 7 13 9 8 6 6 5 5 5 4 5 8 7 8 7 7 9 8 9 11 10 10 11 12 13 13 11 13 10 12 13 14 13 15
1 4 1 2 4 11 8 2 6 8 8 7 12 4 4 3 3 4 4 5 5 5 7 6 6 7 8 9 8 9 13 13 14 15 16 17 14 14 11 14 15 15 14 15
4 4 5 2 3 8 5 4 3 3 8 5 5 5 5 3 2 3 2 7 8 10 10 11 13 12 13 14 14 15 15 14 16 15 17 18 17 10 14 16 16 14 13 15
4 3 9 6 6 14 8 6 3 4 9 4 5 4 4 3 5 2 6 7 8 9 12 12 11 13 14 15 15 16 15 16 17 17 14 16 18 17 17 17 15 13 14 13
11 11 7 3 2 14 8 4 9 4 2 5 3 2 2 3 5 5 7 9 10 11 11 12 12 13 15 14 14 15 17 17 13 16 17 18 17 14 14 17 15 14 14 13
5 11 8 16 14 2 11 4 2 5 5 4 4 3 1 4 4 7 8 9 8 11 10 10 11 15 14 13 12 16 17 13 17 16 16 16 17 15 15 15 14 14 13 11
7 5 6 2 6 10 8 3 4 3 4 6 4 2 2 3 5 6 7 7 8 9 10 10 12 13 15 14 14 13 13 14 15 16 16 15 15 16 13 12 13 12 11 10
6 7 6 9 7 2 8 6 7 7 7 7 4 3 3 2 4 5 8 8 9 10 10 11 11 12 15 15 15 12 13 14 14 15 15 14 13 13 15 12 12 12 13 14
9 11 7 14 4 4 2 8 8 7 4 5 4 2 1 1 4 5 7 7 9 10 12 11 11 13 15 15 15 14 13 13 15 15 13 12 12 13 12 12 12 19 25 25
Wind_Direction
19 59 28 327 320 331 301 51 329 352 22 355 18 64 358 11 37 50 45 51 55 48 13 28 21 16 19 20 17 15 13 6 11 4 359 356 348 329 338 332 334 332 331 332
35 57 338 296 9 47 26 15 347 292 9 27 331 257 1 45 44 67 91 64 54 38 26 15 15 16 17 13 8 11 10 8 13 5 357 343 324 319 310 330 330 329 332 326
93 283 315 86 37 62 57 110 293 226 334 38 331 283 195 125 123 68 41 42 44 45 27 3 7 3 0 11 358 2 359 1 9 358 351 347 325 329 335 339 334 334 329 324
84 321 18 58 63 31 301 176 269 286 31 257 17 278 231 185 176 172 158 107 82 39 14 3 360 4 357 357 346 352 357 357 359 356 356 358 348 335 327 325 322 325 324 323
281 10 13 46 353 30 261 291 241 107 97 35 353 69 265 125 229 211 208 183 110 35 8 5 356 348 336 347 350 336 352 352 351 353 352 344 334 321 315 320 319 321 323 320
90 124 69 267 272 226 294 118 52 61 101 29 239 121 259 195 212 175 196 193 201 331 351 350 330 329 337 341 348 340 351 348 347 347 341 339 330 323 322 318 315 315 314 313
348 29 9 15 316 217 23 42 348 356 6 229 34 351 251 243 216 200 179 190 203 225 318 343 354 348 340 339 336 337 343 337 332 329 326 325 319 317 317 317 315 317 314 313
75 333 15 350 50 341 30 117 143 244 270 281 25 243 263 110 66 87 150 193 212 236 258 297 319 327 326 322 324 324 325 325 324 320 315 312 312 313 311 309 310 307 308 307
62 285 218 57 32 90 258 50 139 103 114 38 256 287 258 126 273 206 213 217 234 246 259 276 301 303 308 318 312 312 311 312 311 307 305 306 305 307 304 304 303 303 304 305
177 337 256 320 100 44 114 163 37 6 337 300 280 274 248 250 237 230 229 227 245 265 271 272 279 299 312 304 300 303 299 301 300 300 296 301 302 298 299 300 300 301 302 304
128 100 291 45 187 182 23 5 45 128 148 199 287 258 211 212 215 215 224 235 248 272 278 280 283 292 297 298 300 296 298 300 305 308 303 302 301 303 303 301 302 304 304 305
216 142 257 228 189 189 205 203 172 133 250 232 190 270 172 229 243 201 223 237 259 254 279 286 285 306 310 303 295 314 312 306 303 302 302 301 304 307 305 306 309 311 308 306
178 292 352 335 2 4 223 202 156 88 66 208 159 259 263 285 285 238 241 260 275 284 304 307 320 314 302 311 312 311 309 300 299 300 300 303 310 309 310 311 313 313 312 311
155 214 189 205 216 127 233 198 195 148 152 207 231 276 281 267 249 252 244 255 280 295 297 298 305 298 304 306 301 295 294 296 299 301 306 308 309 310 309 310 312 312 311 307
140 227 241 262 256 198 257 246 195 194 219 205 274 233 270 273 242 249 246 274 295 299 306 290 280 295 288 289 283 278 289 299 303 300 301 301 303 307 307 308 310 311 309 305
125 265 96 283 322 299 271 266 213 232 253 262 266 278 281 283 328 299 260 267 285 290 285 297 291 287 287 292 305 305 300 296 296 294 294 297 294 293 299 303 308 310 309 307
173 136 56 268 347 321 297 239 198 183 205 164 208 243 272 322 265 241 259 223 263 273 286 286 281 285 291 295 295 295 300 300 299 294 294 293 290 287 288 294 304 307 308 307
142 102 95 278 357 211 245 165 193 191 234 213 278 252 208 211 239 243 234 222 268 269 270 287 290 287 279 276 288 288 292 293 294 291 292 292 284 287 293 301 302 306 306 304
345 110 2 235 214 298 272 192 172 177 266 215 218 231 223 196 251 305 141 185 235 264 276 267 268 274 287 299 293 304 313 312 312 311 316 313 304 296 304 307 308 306 304 305
82 71 129 85 205 256 227 164 139 132 276 156 166 173 172 116 352 249 1 337 317 316 315 313 311 311 313 318 321 317 313 318 315 320 320 316 316 319 313 307 304 305 300 300
171 192 221 220 259 279 244 162 184 95 294 161 166 173 145 203 217 277 326 318 314 311 314 313 321 317 318 321 320 315 318 317 317 318 332 328 316 314 308 305 308 304 300 296
174 163 203 101 208 280 142 84 178 176 112 150 146 148 198 268 312 316 315 314 317 312 317 326 323 317 319 320 321 319 316 318 325 327 322 318 313 310 307 306 305 309 308 307
266 201 192 187 212 165 197 229 163 136 143 154 146 136 94 310 320 311 304 311 309 322 321 323 322 316 316 321 325 315 318 324 327 322 316 314 310 308 308 306 315 313 307 307
244 172 234 51 223 231 207 185 163 140 120 119 107 103 63 317 319 305 296 316 324 324 322 325 321 316 315 322 320 319 320 326 322 318 316 313 313 311 313 325 309 301 302 302
185 137 205 263 274 322 251 204 157 125 115 112 92 85 52 340 319 308 317 324 325 322 325 323 318 315 313 319 322 324 328 327 323 318 316 313 313 320 317 310 311 314 313 299
180 214 209 259 237 210 147 156 130 129 124 108 116 95 109 184 309 327 324 327 320 321 317 313 315 314 315 320 320 324 328 328 322 317 315 317 318 318 316 314 314 314 316 317